Time,TemperatureF,DewpointF,PressureIn,WindDirection,WindDirectionDegrees,WindSpeedMPH,WindSpeedGustMPH,Humidity,HourlyPrecipIn,Conditions,Clouds,dailyrainin,SoftwareType,DateUTC
2013-03-21 00:00:00,36.7,23.7,29.83,North,354,0.0,0.0,59,0.00,,,0.00,WeatherCatV1.13B119,2013-03-21 04:00:00,
2013-03-21 00:01:00,36.6,23.6,29.83,North,354,0.0,0.0,59,0.00,,,0.00,WeatherCatV1.13B119,2013-03-21 04:01:00,
2013-03-21 00:06:00,36.4,23.5,29.83,North,354,0.0,1.0,59,0.00,,,0.00,WeatherCatV1.13B119,2013-03-21 04:06:00,
2013-03-21 00:11:00,36.2,23.7,29.83,North,354,0.0,0.0,60,0.00,,,0.00,WeatherCatV1.13B119,2013-03-21 04:11:00,
2013-03-21 00:16:00,36.2,23.7,29.83,North,354,0.0,0.0,60,0.00,,,0.00,WeatherCatV1.13B119,2013-03-21 04:16:00,
2013-03-21 00:21:00,36.1,23.6,29.84,North,354,0.0,2.0,60,0.00,,,0.00,WeatherCatV1.13B119,2013-03-21 04:21:00,
2013-03-21 00:26:00,36.1,24.0,29.84,North,354,0.0,0.0,61,0.00,,,0.00,WeatherCatV1.13B119,2013-03-21 04:26:00,
2013-03-21 00:31:00,36.1,24.0,29.84,North,354,0.0,0.0,61,0.00,,,0.00,WeatherCatV1.13B119,2013-03-21 04:31:00,
2013-03-21 00:36:00,36.2,24.1,29.84,North,354,1.0,1.0,61,0.00,,,0.00,WeatherCatV1.13B119,2013-03-21 04:36:00,
2013-03-21 00:41:00,36.2,23.7,29.84,North,354,0.0,1.0,60,0.00,,,0.00,WeatherCatV1.13B119,2013-03-21 04:41:00,
2013-03-21 00:46:00,36.3,24.2,29.84,North,354,0.0,1.0,61,0.00,,,0.00,WeatherCatV1.13B119,2013-03-21 04:46:00,
2013-03-21 00:51:00,36.4,24.3,29.83,North,354,1.0,2.0,61,0.00,,,0.00,WeatherCatV1.13B119,2013-03-21 04:51:00,
2013-03-21 00:56:00,36.4,24.3,29.83,North,354,1.0,1.0,61,0.00,,,0.00,WeatherCatV1.13B119,2013-03-21 04:56:00,
2013-03-21 01:01:00,36.4,24.6,29.83,NNW,333,2.0,2.0,62,0.00,,,0.00,WeatherCatV1.13B119,2013-03-21 05:01:00,
2013-03-21 01:06:00,36.3,24.5,29.83,NNW,331,0.0,1.0,62,0.00,,,0.00,WeatherCatV1.13B119,2013-03-21 05:06:00,
2013-03-21 01:11:00,36.2,24.8,29.83,NNW,331,1.0,2.0,63,0.00,,,0.00,WeatherCatV1.13B119,2013-03-21 05:11:00,
2013-03-21 01:16:00,36.1,25.1,29.83,WNW,300,0.0,1.0,64,0.00,,,0.00,WeatherCatV1.13B119,2013-03-21 05:16:00,
2013-03-21 01:21:00,36.1,25.5,29.83,WNW,300,1.0,1.0,65,0.00,,,0.00,WeatherCatV1.13B119,2013-03-21 05:21:00,
2013-03-21 01:26:00,36.0,25.4,29.83,WNW,300,0.0,2.0,65,0.00,,,0.00,WeatherCatV1.13B119,2013-03-21 05:26:00,
2013-03-21 01:31:00,35.9,25.3,29.83,WNW,300,0.0,1.0,65,0.00,,,0.00,WeatherCatV1.13B119,2013-03-21 05:31:00,
2013-03-21 01:36:00,35.8,25.2,29.83,WNW,300,1.0,1.0,65,0.00,,,0.00,WeatherCatV1.13B119,2013-03-21 05:36:00,
2013-03-21 01:41:00,35.7,25.5,29.83,West,277,0.0,1.0,66,0.00,,,0.00,WeatherCatV1.13B119,2013-03-21 05:41:00,
2013-03-21 01:46:00,35.7,25.8,29.83,WNW,284,0.0,2.0,67,0.00,,,0.00,WeatherCatV1.13B119,2013-03-21 05:46:00,
2013-03-21 01:51:00,35.5,26.0,29.83,WNW,284,0.0,1.0,68,0.00,,,0.00,WeatherCatV1.13B119,2013-03-21 05:51:00,
2013-03-21 01:56:00,35.3,26.2,29.82,NNW,341,0.0,2.0,69,0.00,,,0.00,WeatherCatV1.13B119,2013-03-21 05:56:00,
2013-03-21 02:01:00,35.1,26.7,29.82,NNE,13,1.0,2.0,71,0.00,,,0.00,WeatherCatV1.13B119,2013-03-21 06:01:00,
2013-03-21 02:06:00,34.8,26.4,29.82,North,350,0.0,1.0,71,0.00,,,0.00,WeatherCatV1.13B119,2013-03-21 06:06:00,
2013-03-21 02:11:00,34.7,26.6,29.81,North,350,2.0,2.0,72,0.00,,,0.00,WeatherCatV1.13B119,2013-03-21 06:11:00,
2013-03-21 02:16:00,34.5,26.8,29.81,North,350,1.0,1.0,73,0.00,,,0.00,WeatherCatV1.13B119,2013-03-21 06:16:00,
2013-03-21 02:21:00,34.3,26.9,29.81,North,350,1.0,2.0,74,0.00,,,0.00,WeatherCatV1.13B119,2013-03-21 06:21:00,
2013-03-21 02:26:00,34.1,27.0,29.81,NE,34,1.0,3.0,75,0.00,,,0.00,WeatherCatV1.13B119,2013-03-21 06:26:00,
2013-03-21 02:31:00,33.8,27.1,29.81,NNW,338,2.0,3.0,76,0.00,,,0.00,WeatherCatV1.13B119,2013-03-21 06:31:00,
2013-03-21 02:36:00,33.5,27.1,29.81,North,358,1.0,3.0,77,0.00,,,0.00,WeatherCatV1.13B119,2013-03-21 06:36:00,
2013-03-21 02:41:00,33.4,27.3,29.81,North,358,1.0,1.0,78,0.00,,,0.00,WeatherCatV1.13B119,2013-03-21 06:41:00,
2013-03-21 02:46:00,33.3,27.2,29.81,NNE,16,0.0,2.0,78,0.00,,,0.00,WeatherCatV1.13B119,2013-03-21 06:46:00,
2013-03-21 02:51:00,33.2,27.1,29.81,NNE,16,1.0,3.0,78,0.00,,,0.00,WeatherCatV1.13B119,2013-03-21 06:51:00,
2013-03-21 02:56:00,33.2,27.4,29.81,NNE,16,2.0,2.0,79,0.00,,,0.00,WeatherCatV1.13B119,2013-03-21 06:56:00,
2013-03-21 03:01:00,33.1,27.6,29.81,NNW,345,1.0,2.0,80,0.00,,,0.00,WeatherCatV1.13B119,2013-03-21 07:01:00,
2013-03-21 03:06:00,32.9,28.0,29.80,NNE,16,2.0,3.0,82,0.00,,,0.00,WeatherCatV1.13B119,2013-03-21 07:06:00,
2013-03-21 03:11:00,32.7,28.1,29.80,North,352,5.0,5.0,83,0.00,,,0.00,WeatherCatV1.13B119,2013-03-21 07:11:00,
2013-03-21 03:16:00,32.4,28.1,29.80,NNE,25,0.0,3.0,84,0.00,,,0.00,WeatherCatV1.13B119,2013-03-21 07:16:00,
2013-03-21 03:21:00,32.1,28.1,29.81,North,1,2.0,3.0,85,0.00,,,0.00,WeatherCatV1.13B119,2013-03-21 07:21:00,
2013-03-21 03:26:00,31.8,27.8,29.80,North,1,1.0,2.0,85,0.00,,,0.00,WeatherCatV1.13B119,2013-03-21 07:26:00,
2013-03-21 03:31:00,31.6,27.6,29.80,North,1,1.0,3.0,85,0.00,,,0.00,WeatherCatV1.13B119,2013-03-21 07:31:00,
2013-03-21 03:36:00,31.6,27.6,29.80,North,1,1.0,2.0,85,0.00,,,0.00,WeatherCatV1.13B119,2013-03-21 07:36:00,
2013-03-21 03:41:00,31.5,27.5,29.80,North,3,0.0,2.0,85,0.00,,,0.00,WeatherCatV1.13B119,2013-03-21 07:41:00,
2013-03-21 03:46:00,31.4,27.4,29.79,North,3,2.0,3.0,85,0.00,,,0.00,WeatherCatV1.13B119,2013-03-21 07:46:00,
2013-03-21 03:51:00,31.4,27.1,29.79,North,3,0.0,2.0,84,0.00,,,0.00,WeatherCatV1.13B119,2013-03-21 07:51:00,
2013-03-21 03:56:00,31.3,27.0,29.79,North,3,0.0,1.0,84,0.00,,,0.00,WeatherCatV1.13B119,2013-03-21 07:56:00,
2013-03-21 04:01:00,31.3,27.0,29.78,North,3,1.0,1.0,84,0.00,,,0.00,WeatherCatV1.13B119,2013-03-21 08:01:00,
2013-03-21 04:06:00,31.3,27.0,29.78,North,3,0.0,2.0,84,0.00,,,0.00,WeatherCatV1.13B119,2013-03-21 08:06:00,
2013-03-21 04:11:00,31.3,26.7,29.78,North,3,0.0,1.0,83,0.00,,,0.00,WeatherCatV1.13B119,2013-03-21 08:11:00,
2013-03-21 04:16:00,31.4,26.8,29.77,North,3,1.0,1.0,83,0.00,,,0.00,WeatherCatV1.13B119,2013-03-21 08:16:00,
2013-03-21 04:21:00,31.4,26.8,29.77,North,3,0.0,0.0,83,0.00,,,0.00,WeatherCatV1.13B119,2013-03-21 08:21:00,
2013-03-21 04:26:00,31.4,26.8,29.77,North,3,1.0,1.0,83,0.00,,,0.00,WeatherCatV1.13B119,2013-03-21 08:26:00,
2013-03-21 04:31:00,31.4,26.8,29.77,North,3,0.0,0.0,83,0.00,,,0.00,WeatherCatV1.13B119,2013-03-21 08:31:00,
2013-03-21 04:36:00,31.4,26.8,29.77,North,3,0.0,1.0,83,0.00,,,0.00,WeatherCatV1.13B119,2013-03-21 08:36:00,
2013-03-21 04:41:00,31.4,26.8,29.77,North,3,1.0,1.0,83,0.00,,,0.00,WeatherCatV1.13B119,2013-03-21 08:41:00,
2013-03-21 04:46:00,31.5,26.4,29.77,North,3,0.0,2.0,81,0.00,,,0.00,WeatherCatV1.13B119,2013-03-21 08:46:00,
2013-03-21 04:51:00,31.6,26.2,29.77,North,3,0.0,2.0,80,0.00,,,0.00,WeatherCatV1.13B119,2013-03-21 08:51:00,
2013-03-21 04:56:00,31.7,26.2,29.77,North,3,0.0,1.0,80,0.00,,,0.00,WeatherCatV1.13B119,2013-03-21 08:56:00,
2013-03-21 05:01:00,31.8,26.0,29.77,North,3,0.0,3.0,79,0.00,,,0.00,WeatherCatV1.13B119,2013-03-21 09:01:00,
2013-03-21 05:06:00,31.9,25.8,29.77,North,3,1.0,3.0,78,0.00,,,0.00,WeatherCatV1.13B119,2013-03-21 09:06:00,
2013-03-21 05:11:00,32.0,25.6,29.77,NNE,15,0.0,1.0,77,0.00,,,0.00,WeatherCatV1.13B119,2013-03-21 09:11:00,
2013-03-21 05:16:00,32.0,25.3,29.77,NW,317,1.0,3.0,76,0.00,,,0.00,WeatherCatV1.13B119,2013-03-21 09:16:00,
2013-03-21 05:21:00,32.1,24.8,29.77,North,1,0.0,3.0,74,0.00,,,0.00,WeatherCatV1.13B119,2013-03-21 09:21:00,
2013-03-21 05:26:00,32.1,23.8,29.77,NNW,334,1.0,3.0,71,0.00,,,0.00,WeatherCatV1.13B119,2013-03-21 09:26:00,
2013-03-21 05:31:00,32.1,23.1,29.77,North,352,1.0,5.0,69,0.00,,,0.00,WeatherCatV1.13B119,2013-03-21 09:31:00,
2013-03-21 05:36:00,32.1,23.1,29.77,North,351,2.0,2.0,69,0.00,,,0.00,WeatherCatV1.13B119,2013-03-21 09:36:00,
2013-03-21 05:41:00,32.0,22.7,29.77,NNW,347,3.0,4.0,68,0.00,,,0.00,WeatherCatV1.13B119,2013-03-21 09:41:00,
2013-03-21 05:46:00,32.0,22.3,29.77,North,359,0.0,3.0,67,0.00,,,0.00,WeatherCatV1.13B119,2013-03-21 09:46:00,
2013-03-21 05:51:00,32.0,22.7,29.77,North,359,3.0,3.0,68,0.00,,,0.00,WeatherCatV1.13B119,2013-03-21 09:51:00,
2013-03-21 05:56:00,31.9,22.6,29.77,North,359,0.0,3.0,68,0.00,,,0.00,WeatherCatV1.13B119,2013-03-21 09:56:00,
2013-03-21 06:01:00,31.9,22.2,29.77,NNE,33,0.0,3.0,67,0.00,,,0.00,WeatherCatV1.13B119,2013-03-21 10:01:00,
2013-03-21 06:06:00,31.8,22.1,29.78,NNE,22,1.0,4.0,67,0.00,,,0.00,WeatherCatV1.13B119,2013-03-21 10:06:00,
2013-03-21 06:11:00,31.8,22.1,29.78,NNE,22,0.0,1.0,67,0.00,,,0.00,WeatherCatV1.13B119,2013-03-21 10:11:00,
2013-03-21 06:16:00,31.7,21.7,29.78,NNE,22,1.0,2.0,66,0.00,,,0.00,WeatherCatV1.13B119,2013-03-21 10:16:00,
2013-03-21 06:21:00,31.7,21.7,29.79,NNE,16,1.0,2.0,66,0.00,,,0.00,WeatherCatV1.13B119,2013-03-21 10:21:00,
2013-03-21 06:26:00,31.6,20.5,29.78,NW,325,3.0,5.0,63,0.00,,,0.00,WeatherCatV1.13B119,2013-03-21 10:26:00,
2013-03-21 06:31:00,31.5,20.0,29.78,North,358,1.0,4.0,62,0.00,,,0.00,WeatherCatV1.13B119,2013-03-21 10:31:00,
2013-03-21 06:36:00,31.4,19.1,29.78,NNW,336,1.0,7.0,60,0.00,,,0.00,WeatherCatV1.13B119,2013-03-21 10:36:00,
2013-03-21 06:41:00,31.3,18.7,29.78,North,351,2.0,3.0,59,0.00,,,0.00,WeatherCatV1.13B119,2013-03-21 10:41:00,
2013-03-21 06:46:00,31.3,18.3,29.78,NNE,21,1.0,3.0,58,0.00,,,0.00,WeatherCatV1.13B119,2013-03-21 10:46:00,
2013-03-21 06:51:00,31.2,18.2,29.78,NNE,21,1.0,5.0,58,0.00,,,0.00,WeatherCatV1.13B119,2013-03-21 10:51:00,
2013-03-21 06:56:00,31.2,18.2,29.78,NNE,21,0.0,2.0,58,0.00,,,0.00,WeatherCatV1.13B119,2013-03-21 10:56:00,
2013-03-21 07:01:00,31.2,17.8,29.80,North,358,1.0,2.0,57,0.00,,,0.00,WeatherCatV1.13B119,2013-03-21 11:01:00,
2013-03-21 07:06:00,31.2,17.8,29.79,NNW,342,3.0,5.0,57,0.00,,,0.00,WeatherCatV1.13B119,2013-03-21 11:06:00,
2013-03-21 07:11:00,31.2,17.4,29.79,NNW,340,2.0,4.0,56,0.00,,,0.00,WeatherCatV1.13B119,2013-03-21 11:11:00,
2013-03-21 07:16:00,31.1,17.7,29.78,NNW,339,1.0,2.0,57,0.00,,,0.00,WeatherCatV1.13B119,2013-03-21 11:16:00,
2013-03-21 07:21:00,31.1,16.4,29.79,North,349,1.0,4.0,54,0.00,,,0.00,WeatherCatV1.13B119,2013-03-21 11:21:00,
2013-03-21 07:26:00,31.0,15.9,29.78,NNW,344,5.0,6.0,53,0.00,,,0.00,WeatherCatV1.13B119,2013-03-21 11:26:00,
2013-03-21 07:31:00,30.9,15.4,29.78,North,351,1.0,3.0,52,0.00,,,0.00,WeatherCatV1.13B119,2013-03-21 11:31:00,
2013-03-21 07:36:00,30.9,15.4,29.78,North,8,1.0,3.0,52,0.00,,,0.00,WeatherCatV1.13B119,2013-03-21 11:36:00,
2013-03-21 07:41:00,30.8,15.3,29.78,North,354,1.0,2.0,52,0.00,,,0.00,WeatherCatV1.13B119,2013-03-21 11:41:00,
2013-03-21 07:46:00,30.8,15.3,29.78,NNW,347,3.0,4.0,52,0.00,,,0.00,WeatherCatV1.13B119,2013-03-21 11:46:00,
2013-03-21 07:51:00,30.7,14.7,29.78,NNW,345,2.0,4.0,51,0.00,,,0.00,WeatherCatV1.13B119,2013-03-21 11:51:00,
2013-03-21 07:56:00,30.7,15.2,29.78,NNW,345,1.0,1.0,52,0.00,,,0.00,WeatherCatV1.13B119,2013-03-21 11:56:00,
2013-03-21 08:01:00,30.7,14.7,29.78,NNW,347,3.0,4.0,51,0.00,,,0.00,WeatherCatV1.13B119,2013-03-21 12:01:00,
2013-03-21 08:06:00,30.7,15.2,29.78,NNW,347,2.0,2.0,52,0.00,,,0.00,WeatherCatV1.13B119,2013-03-21 12:06:00,
2013-03-21 08:11:00,30.8,15.3,29.78,NNW,348,2.0,4.0,52,0.00,,,0.00,WeatherCatV1.13B119,2013-03-21 12:11:00,
2013-03-21 08:16:00,30.8,14.8,29.78,NNW,347,1.0,2.0,51,0.00,,,0.00,WeatherCatV1.13B119,2013-03-21 12:16:00,
2013-03-21 08:21:00,30.9,15.4,29.78,NNW,347,2.0,2.0,52,0.00,,,0.00,WeatherCatV1.13B119,2013-03-21 12:21:00,
2013-03-21 08:26:00,31.0,15.5,29.78,NNW,338,1.0,1.0,52,0.00,,,0.00,WeatherCatV1.13B119,2013-03-21 12:26:00,
2013-03-21 08:31:00,31.0,15.5,29.78,NNW,338,0.0,1.0,52,0.00,,,0.00,WeatherCatV1.13B119,2013-03-21 12:31:00,
2013-03-21 08:36:00,31.1,15.1,29.78,NNW,338,1.0,2.0,51,0.00,,,0.00,WeatherCatV1.13B119,2013-03-21 12:36:00,
2013-03-21 08:41:00,31.1,15.6,29.77,NNW,338,1.0,2.0,52,0.00,,,0.00,WeatherCatV1.13B119,2013-03-21 12:41:00,
2013-03-21 08:46:00,31.1,15.1,29.78,NNW,342,2.0,5.0,51,0.00,,,0.00,WeatherCatV1.13B119,2013-03-21 12:46:00,
2013-03-21 08:51:00,31.0,15.0,29.78,NNW,329,1.0,1.0,51,0.00,,,0.00,WeatherCatV1.13B119,2013-03-21 12:51:00,
2013-03-21 08:56:00,31.0,15.5,29.77,North,356,2.0,4.0,52,0.00,,,0.00,WeatherCatV1.13B119,2013-03-21 12:56:00,
2013-03-21 09:01:00,31.0,15.5,29.77,NNW,339,0.0,2.0,52,0.00,,,0.00,WeatherCatV1.13B119,2013-03-21 13:01:00,
2013-03-21 09:06:00,31.0,15.5,29.77,NNW,339,0.0,0.0,52,0.00,,,0.00,WeatherCatV1.13B119,2013-03-21 13:06:00,
2013-03-21 09:11:00,31.1,15.6,29.77,North,351,2.0,3.0,52,0.00,,,0.00,WeatherCatV1.13B119,2013-03-21 13:11:00,
2013-03-21 09:16:00,31.1,15.1,29.77,North,351,0.0,4.0,51,0.00,,,0.00,WeatherCatV1.13B119,2013-03-21 13:16:00,
2013-03-21 09:21:00,31.1,15.6,29.76,North,352,1.0,4.0,52,0.00,,,0.00,WeatherCatV1.13B119,2013-03-21 13:21:00,
2013-03-21 09:26:00,31.1,15.6,29.76,NNW,342,0.0,1.0,52,0.00,,,0.00,WeatherCatV1.13B119,2013-03-21 13:26:00,
2013-03-21 09:31:00,31.3,15.7,29.76,North,1,1.0,3.0,52,0.00,,,0.00,WeatherCatV1.13B119,2013-03-21 13:31:00,
2013-03-21 09:36:00,31.4,14.9,29.76,NW,304,1.0,3.0,50,0.00,,,0.00,WeatherCatV1.13B119,2013-03-21 13:36:00,
2013-03-21 09:41:00,31.3,14.8,29.76,NNW,345,2.0,2.0,50,0.00,,,0.00,WeatherCatV1.13B119,2013-03-21 13:41:00,
2013-03-21 09:46:00,31.4,15.8,29.76,North,350,2.0,2.0,52,0.00,,,0.00,WeatherCatV1.13B119,2013-03-21 13:46:00,
2013-03-21 09:51:00,31.6,16.0,29.76,North,350,2.0,2.0,52,0.00,,,0.00,WeatherCatV1.13B119,2013-03-21 13:51:00,
2013-03-21 09:56:00,31.8,15.3,29.76,NNE,13,1.0,1.0,50,0.00,,,0.00,WeatherCatV1.13B119,2013-03-21 13:56:00,
2013-03-21 10:01:00,32.1,15.6,29.76,ENE,59,1.0,1.0,50,0.00,,,0.00,WeatherCatV1.13B119,2013-03-21 14:01:00,
2013-03-21 10:06:00,32.3,15.3,29.76,NW,318,1.0,3.0,49,0.00,,,0.00,WeatherCatV1.13B119,2013-03-21 14:06:00,
2013-03-21 10:11:00,32.5,15.0,29.76,WNW,294,2.0,4.0,48,0.00,,,0.00,WeatherCatV1.13B119,2013-03-21 14:11:00,
2013-03-21 10:16:00,32.5,15.5,29.76,NNW,338,2.0,5.0,49,0.00,,,0.00,WeatherCatV1.13B119,2013-03-21 14:16:00,
2013-03-21 10:21:00,32.5,15.5,29.75,North,356,2.0,3.0,49,0.00,,,0.00,WeatherCatV1.13B119,2013-03-21 14:21:00,
2013-03-21 10:26:00,32.5,15.5,29.75,NNW,348,1.0,2.0,49,0.00,,,0.00,WeatherCatV1.13B119,2013-03-21 14:26:00,
2013-03-21 10:31:00,32.8,16.2,29.75,North,352,1.0,2.0,50,0.00,,,0.00,WeatherCatV1.13B119,2013-03-21 14:31:00,
2013-03-21 10:36:00,33.2,16.1,29.75,WNW,294,3.0,3.0,49,0.00,,,0.00,WeatherCatV1.13B119,2013-03-21 14:36:00,
2013-03-21 10:41:00,33.3,16.2,29.75,NNW,344,0.0,4.0,49,0.00,,,0.00,WeatherCatV1.13B119,2013-03-21 14:41:00,
2013-03-21 10:46:00,33.5,16.9,29.75,NNE,17,2.0,5.0,50,0.00,,,0.00,WeatherCatV1.13B119,2013-03-21 14:46:00,
2013-03-21 10:51:00,33.4,15.8,29.75,North,352,0.0,2.0,48,0.00,,,0.00,WeatherCatV1.13B119,2013-03-21 14:51:00,
2013-03-21 10:56:00,33.4,16.8,29.75,North,1,2.0,3.0,50,0.00,,,0.00,WeatherCatV1.13B119,2013-03-21 14:56:00,
2013-03-21 11:01:00,33.3,16.2,29.75,North,6,0.0,1.0,49,0.00,,,0.00,WeatherCatV1.13B119,2013-03-21 15:01:00,
2013-03-21 11:06:00,33.4,15.8,29.75,North,10,0.0,2.0,48,0.00,,,0.00,WeatherCatV1.13B119,2013-03-21 15:06:00,
2013-03-21 11:11:00,33.5,16.4,29.74,NNW,348,3.0,3.0,49,0.00,,,0.00,WeatherCatV1.13B119,2013-03-21 15:11:00,
2013-03-21 11:16:00,33.5,17.3,29.74,NW,325,2.0,3.0,51,0.00,,,0.00,WeatherCatV1.13B119,2013-03-21 15:16:00,
2013-03-21 11:21:00,33.7,16.6,29.74,NW,318,2.0,3.0,49,0.00,,,0.00,WeatherCatV1.13B119,2013-03-21 15:21:00,
2013-03-21 11:26:00,34.0,17.3,29.74,North,354,2.0,5.0,50,0.00,,,0.00,WeatherCatV1.13B119,2013-03-21 15:26:00,
2013-03-21 11:31:00,34.2,16.6,29.73,NW,308,1.0,3.0,48,0.00,,,0.00,WeatherCatV1.13B119,2013-03-21 15:31:00,
2013-03-21 11:36:00,34.4,16.8,29.73,North,350,1.0,4.0,48,0.00,,,0.00,WeatherCatV1.13B119,2013-03-21 15:36:00,
2013-03-21 11:41:00,34.4,16.3,29.73,NNW,348,3.0,4.0,47,0.00,,,0.00,WeatherCatV1.13B119,2013-03-21 15:41:00,
2013-03-21 11:46:00,34.5,16.4,29.73,NNE,14,2.0,7.0,47,0.00,,,0.00,WeatherCatV1.13B119,2013-03-21 15:46:00,
2013-03-21 11:51:00,34.8,16.6,29.73,North,2,1.0,5.0,47,0.00,,,0.00,WeatherCatV1.13B119,2013-03-21 15:51:00,
2013-03-21 11:56:00,34.9,15.7,29.72,NNE,19,2.0,7.0,45,0.00,,,0.00,WeatherCatV1.13B119,2013-03-21 15:56:00,
2013-03-21 12:01:00,35.0,17.3,29.72,NNE,23,2.0,4.0,48,0.00,,,0.00,WeatherCatV1.13B119,2013-03-21 16:01:00,
2013-03-21 12:06:00,35.1,16.9,29.72,North,7,0.0,2.0,47,0.00,,,0.00,WeatherCatV1.13B119,2013-03-21 16:06:00,
2013-03-21 12:11:00,35.1,15.9,29.72,NNW,340,1.0,5.0,45,0.00,,,0.00,WeatherCatV1.13B119,2013-03-21 16:11:00,
2013-03-21 12:16:00,34.7,15.6,29.72,North,11,2.0,2.0,45,0.00,,,0.00,WeatherCatV1.13B119,2013-03-21 16:16:00,
2013-03-21 12:21:00,34.5,15.9,29.72,NE,36,1.0,3.0,46,0.00,,,0.00,WeatherCatV1.13B119,2013-03-21 16:21:00,
2013-03-21 12:26:00,34.5,15.9,29.72,NNW,342,3.0,5.0,46,0.00,,,0.00,WeatherCatV1.13B119,2013-03-21 16:26:00,
2013-03-21 12:31:00,34.6,16.0,29.71,NE,46,1.0,2.0,46,0.00,,,0.00,WeatherCatV1.13B119,2013-03-21 16:31:00,
2013-03-21 12:36:00,34.7,16.1,29.71,North,351,2.0,3.0,46,0.00,,,0.00,WeatherCatV1.13B119,2013-03-21 16:36:00,
2013-03-21 12:41:00,34.8,15.1,29.71,SW,221,1.0,1.0,44,0.00,,,0.00,WeatherCatV1.13B119,2013-03-21 16:41:00,
2013-03-21 12:46:00,34.9,16.2,29.71,North,6,1.0,5.0,46,0.00,,,0.00,WeatherCatV1.13B119,2013-03-21 16:46:00,
2013-03-21 12:51:00,35.0,16.3,29.71,North,8,2.0,5.0,46,0.00,,,0.00,WeatherCatV1.13B119,2013-03-21 16:51:00,
2013-03-21 12:56:00,35.1,15.9,29.71,NNW,342,2.0,3.0,45,0.00,,,0.00,WeatherCatV1.13B119,2013-03-21 16:56:00,
2013-03-21 13:01:00,35.1,16.4,29.70,NNE,17,3.0,3.0,46,0.00,,,0.00,WeatherCatV1.13B119,2013-03-21 17:01:00,
2013-03-21 13:06:00,35.1,15.9,29.70,North,351,1.0,2.0,45,0.00,,,0.00,WeatherCatV1.13B119,2013-03-21 17:06:00,
2013-03-21 13:11:00,35.2,16.0,29.70,NNE,23,2.0,5.0,45,0.00,,,0.00,WeatherCatV1.13B119,2013-03-21 17:11:00,
2013-03-21 13:16:00,35.0,16.3,29.69,ENE,61,2.0,2.0,46,0.00,,,0.00,WeatherCatV1.13B119,2013-03-21 17:16:00,
2013-03-21 13:21:00,35.2,16.0,29.69,NNW,343,1.0,4.0,45,0.00,,,0.00,WeatherCatV1.13B119,2013-03-21 17:21:00,
2013-03-21 13:26:00,35.6,17.4,29.69,North,358,2.0,2.0,47,0.00,,,0.00,WeatherCatV1.13B119,2013-03-21 17:26:00,
2013-03-21 13:31:00,36.1,16.8,29.68,North,354,1.0,2.0,45,0.00,,,0.00,WeatherCatV1.13B119,2013-03-21 17:31:00,
2013-03-21 13:36:00,36.5,16.7,29.68,North,356,5.0,5.0,44,0.00,,,0.00,WeatherCatV1.13B119,2013-03-21 17:36:00,
2013-03-21 13:41:00,36.6,17.3,29.68,ENE,73,1.0,2.0,45,0.00,,,0.00,WeatherCatV1.13B119,2013-03-21 17:41:00,
2013-03-21 13:46:00,36.8,17.5,29.68,NE,37,5.0,5.0,45,0.00,,,0.00,WeatherCatV1.13B119,2013-03-21 17:46:00,
2013-03-21 13:51:00,36.6,16.8,29.68,NNW,345,2.0,5.0,44,0.00,,,0.00,WeatherCatV1.13B119,2013-03-21 17:51:00,
2013-03-21 13:56:00,36.1,16.8,29.67,NNE,13,1.0,2.0,45,0.00,,,0.00,WeatherCatV1.13B119,2013-03-21 17:56:00,
2013-03-21 14:01:00,36.3,17.5,29.67,NNE,32,3.0,6.0,46,0.00,,,0.00,WeatherCatV1.13B119,2013-03-21 18:01:00,
2013-03-21 14:06:00,36.6,17.3,29.67,North,6,2.0,5.0,45,0.00,,,0.00,WeatherCatV1.13B119,2013-03-21 18:06:00,
2013-03-21 14:11:00,36.9,17.6,29.66,NNW,329,2.0,2.0,45,0.00,,,0.00,WeatherCatV1.13B119,2013-03-21 18:11:00,
2013-03-21 14:16:00,37.3,16.3,29.67,NNW,346,1.0,2.0,42,0.00,,,0.00,WeatherCatV1.13B119,2013-03-21 18:16:00,
2013-03-21 14:21:00,37.4,16.4,29.67,North,351,2.0,3.0,42,0.00,,,0.00,WeatherCatV1.13B119,2013-03-21 18:21:00,
2013-03-21 14:26:00,37.4,17.0,29.66,NNE,16,0.0,1.0,43,0.00,,,0.00,WeatherCatV1.13B119,2013-03-21 18:26:00,
2013-03-21 14:31:00,37.5,16.5,29.66,North,7,1.0,7.0,42,0.00,,,0.00,WeatherCatV1.13B119,2013-03-21 18:31:00,
2013-03-21 14:36:00,37.6,16.6,29.66,NW,317,0.0,3.0,42,0.00,,,0.00,WeatherCatV1.13B119,2013-03-21 18:36:00,
2013-03-21 14:41:00,37.6,16.1,29.66,NNW,346,4.0,6.0,41,0.00,,,0.00,WeatherCatV1.13B119,2013-03-21 18:41:00,
2013-03-21 14:46:00,37.5,16.0,29.66,NNE,14,5.0,5.0,41,0.00,,,0.00,WeatherCatV1.13B119,2013-03-21 18:46:00,
2013-03-21 14:51:00,37.2,16.2,29.65,North,10,1.0,2.0,42,0.00,,,0.00,WeatherCatV1.13B119,2013-03-21 18:51:00,
2013-03-21 14:56:00,37.3,15.8,29.65,NNE,23,2.0,2.0,41,0.00,,,0.00,WeatherCatV1.13B119,2013-03-21 18:56:00,
2013-03-21 15:01:00,37.3,15.8,29.65,NW,319,0.0,4.0,41,0.00,,,0.00,WeatherCatV1.13B119,2013-03-21 19:01:00,
2013-03-21 15:06:00,37.4,15.9,29.65,NNW,335,4.0,4.0,41,0.00,,,0.00,WeatherCatV1.13B119,2013-03-21 19:06:00,
2013-03-21 15:11:00,37.4,14.7,29.65,North,358,1.0,4.0,39,0.00,,,0.00,WeatherCatV1.13B119,2013-03-21 19:11:00,
2013-03-21 15:16:00,37.7,15.6,29.65,West,263,1.0,3.0,40,0.00,,,0.00,WeatherCatV1.13B119,2013-03-21 19:16:00,
2013-03-21 15:21:00,38.0,15.9,29.65,NNW,331,1.0,2.0,40,0.00,,,0.00,WeatherCatV1.13B119,2013-03-21 19:21:00,
2013-03-21 15:26:00,38.1,15.9,29.64,North,3,0.0,1.0,40,0.00,,,0.00,WeatherCatV1.13B119,2013-03-21 19:26:00,
2013-03-21 15:31:00,38.2,15.4,29.64,North,3,1.0,1.0,39,0.00,,,0.00,WeatherCatV1.13B119,2013-03-21 19:31:00,
2013-03-21 15:36:00,38.2,15.4,29.64,NW,315,1.0,5.0,39,0.00,,,0.00,WeatherCatV1.13B119,2013-03-21 19:36:00,
2013-03-21 15:41:00,38.5,15.7,29.64,WSW,253,1.0,3.0,39,0.00,,,0.00,WeatherCatV1.13B119,2013-03-21 19:41:00,
2013-03-21 15:46:00,38.9,14.9,29.64,NNW,339,3.0,3.0,37,0.00,,,0.00,WeatherCatV1.13B119,2013-03-21 19:46:00,
2013-03-21 15:51:00,38.9,14.9,29.63,NNW,344,4.0,4.0,37,0.00,,,0.00,WeatherCatV1.13B119,2013-03-21 19:51:00,
2013-03-21 15:56:00,38.9,13.6,29.64,North,7,2.0,4.0,35,0.00,,,0.00,WeatherCatV1.13B119,2013-03-21 19:56:00,
2013-03-21 16:01:00,39.1,13.8,29.63,WSW,258,1.0,4.0,35,0.00,,,0.00,WeatherCatV1.13B119,2013-03-21 20:01:00,
2013-03-21 16:06:00,39.3,14.0,29.63,SSW,213,1.0,3.0,35,0.00,,,0.00,WeatherCatV1.13B119,2013-03-21 20:06:00,
2013-03-21 16:11:00,39.4,14.1,29.63,NW,313,1.0,4.0,35,0.00,,,0.00,WeatherCatV1.13B119,2013-03-21 20:11:00,
2013-03-21 16:16:00,39.4,13.4,29.63,NW,311,2.0,8.0,34,0.00,,,0.00,WeatherCatV1.13B119,2013-03-21 20:16:00,
2013-03-21 16:21:00,39.1,13.1,29.63,WNW,302,0.0,1.0,34,0.00,,,0.00,WeatherCatV1.13B119,2013-03-21 20:21:00,
2013-03-21 16:26:00,39.1,13.8,29.63,West,277,3.0,5.0,35,0.00,,,0.00,WeatherCatV1.13B119,2013-03-21 20:26:00,
2013-03-21 16:31:00,39.0,13.7,29.63,SW,223,1.0,4.0,35,0.00,,,0.00,WeatherCatV1.13B119,2013-03-21 20:31:00,
2013-03-21 16:36:00,38.9,14.2,29.63,NW,309,1.0,2.0,36,0.00,,,0.00,WeatherCatV1.13B119,2013-03-21 20:36:00,
2013-03-21 16:41:00,38.7,13.4,29.62,West,277,2.0,4.0,35,0.00,,,0.00,WeatherCatV1.13B119,2013-03-21 20:41:00,
2013-03-21 16:46:00,38.5,13.3,29.62,NNW,347,1.0,5.0,35,0.00,,,0.00,WeatherCatV1.13B119,2013-03-21 20:46:00,
2013-03-21 16:51:00,38.5,13.9,29.62,WNW,284,2.0,2.0,36,0.00,,,0.00,WeatherCatV1.13B119,2013-03-21 20:51:00,
2013-03-21 16:56:00,38.7,14.7,29.63,SW,233,2.0,2.0,37,0.00,,,0.00,WeatherCatV1.13B119,2013-03-21 20:56:00,
2013-03-21 17:01:00,38.9,15.5,29.62,NNW,344,3.0,4.0,38,0.00,,,0.00,WeatherCatV1.13B119,2013-03-21 21:01:00,
2013-03-21 17:06:00,38.8,14.8,29.62,WNW,303,3.0,3.0,37,0.00,,,0.00,WeatherCatV1.13B119,2013-03-21 21:06:00,
2013-03-21 17:11:00,38.9,14.9,29.62,NW,311,1.0,2.0,37,0.00,,,0.00,WeatherCatV1.13B119,2013-03-21 21:11:00,
2013-03-21 17:16:00,38.8,14.2,29.63,NNW,342,2.0,4.0,36,0.00,,,0.00,WeatherCatV1.13B119,2013-03-21 21:16:00,
2013-03-21 17:21:00,38.4,13.8,29.63,NNW,328,2.0,4.0,36,0.00,,,0.00,WeatherCatV1.13B119,2013-03-21 21:21:00,
2013-03-21 17:26:00,38.3,14.3,29.63,NW,325,2.0,7.0,37,0.00,,,0.00,WeatherCatV1.13B119,2013-03-21 21:26:00,
2013-03-21 17:31:00,38.3,14.3,29.63,NNE,13,1.0,5.0,37,0.00,,,0.00,WeatherCatV1.13B119,2013-03-21 21:31:00,
2013-03-21 17:36:00,38.2,14.2,29.63,NNW,343,2.0,2.0,37,0.00,,,0.00,WeatherCatV1.13B119,2013-03-21 21:36:00,
2013-03-21 17:41:00,38.2,13.6,29.63,NNW,342,1.0,2.0,36,0.00,,,0.00,WeatherCatV1.13B119,2013-03-21 21:41:00,
2013-03-21 17:46:00,38.1,13.5,29.64,NNW,341,1.0,3.0,36,0.00,,,0.00,WeatherCatV1.13B119,2013-03-21 21:46:00,
2013-03-21 17:51:00,38.2,13.6,29.63,NW,319,2.0,2.0,36,0.00,,,0.00,WeatherCatV1.13B119,2013-03-21 21:51:00,
2013-03-21 17:56:00,38.2,13.0,29.63,NNW,336,1.0,3.0,35,0.00,,,0.00,WeatherCatV1.13B119,2013-03-21 21:56:00,
2013-03-21 18:01:00,38.0,13.4,29.63,NNE,23,1.0,8.0,36,0.00,,,0.00,WeatherCatV1.13B119,2013-03-21 22:01:00,
2013-03-21 18:06:00,37.9,13.4,29.64,North,352,2.0,3.0,36,0.00,,,0.00,WeatherCatV1.13B119,2013-03-21 22:06:00,
2013-03-21 18:11:00,37.8,13.3,29.64,NNW,343,2.0,4.0,36,0.00,,,0.00,WeatherCatV1.13B119,2013-03-21 22:11:00,
2013-03-21 18:16:00,37.7,13.2,29.64,WNW,300,1.0,3.0,36,0.00,,,0.00,WeatherCatV1.13B119,2013-03-21 22:16:00,
2013-03-21 18:21:00,37.6,13.1,29.64,West,262,1.0,3.0,36,0.00,,,0.00,WeatherCatV1.13B119,2013-03-21 22:21:00,
2013-03-21 18:26:00,37.6,13.1,29.64,West,262,0.0,1.0,36,0.00,,,0.00,WeatherCatV1.13B119,2013-03-21 22:26:00,
2013-03-21 18:31:00,37.6,14.3,29.64,WSW,258,0.0,1.0,38,0.00,,,0.00,WeatherCatV1.13B119,2013-03-21 22:31:00,
2013-03-21 18:36:00,37.6,13.7,29.64,WNW,284,1.0,1.0,37,0.00,,,0.00,WeatherCatV1.13B119,2013-03-21 22:36:00,
2013-03-21 18:41:00,37.7,13.8,29.64,North,354,1.0,3.0,37,0.00,,,0.00,WeatherCatV1.13B119,2013-03-21 22:41:00,
2013-03-21 18:46:00,37.7,13.2,29.64,North,3,2.0,2.0,36,0.00,,,0.00,WeatherCatV1.13B119,2013-03-21 22:46:00,
2013-03-21 18:51:00,37.6,13.1,29.65,WNW,284,1.0,3.0,36,0.00,,,0.00,WeatherCatV1.13B119,2013-03-21 22:51:00,
2013-03-21 18:56:00,37.6,13.1,29.65,NW,323,3.0,4.0,36,0.00,,,0.00,WeatherCatV1.13B119,2013-03-21 22:56:00,
2013-03-21 19:01:00,37.5,13.6,29.65,North,7,2.0,3.0,37,0.00,,,0.00,WeatherCatV1.13B119,2013-03-21 23:01:00,
2013-03-21 19:06:00,37.4,12.9,29.65,NW,309,1.0,2.0,36,0.00,,,0.00,WeatherCatV1.13B119,2013-03-21 23:06:00,
2013-03-21 19:10:00,38.8,15.4,29.62,WNW,292,2.0,7.0,38,0.00,,,0.00,WeatherCatV1.13B119,2013-03-21 23:10:00,
2013-03-21 19:11:00,37.3,12.8,29.65,NNW,344,2.0,3.0,36,0.00,,,0.00,WeatherCatV1.13B119,2013-03-21 23:11:00,
2013-03-21 19:15:00,38.8,15.4,29.62,WNW,292,2.0,7.0,38,0.00,,,0.00,WeatherCatV1.13B119,2013-03-21 23:15:00,
2013-03-21 19:20:00,38.8,15.4,29.62,WNW,292,2.0,7.0,38,0.00,,,0.00,WeatherCatV1.13B119,2013-03-21 23:20:00,
2013-03-21 19:25:00,38.8,15.4,29.62,WNW,292,2.0,7.0,38,0.00,,,0.00,WeatherCatV1.13B119,2013-03-21 23:25:00,
2013-03-21 19:30:00,38.8,15.4,29.62,WNW,292,2.0,7.0,38,0.00,,,0.00,WeatherCatV1.13B119,2013-03-21 23:30:00,
2013-03-21 19:35:00,38.8,15.4,29.62,WNW,292,2.0,7.0,38,0.00,,,0.00,WeatherCatV1.13B119,2013-03-21 23:35:00,
2013-03-21 19:40:00,38.3,14.3,29.63,North,0,2.0,7.0,37,0.00,,,0.00,WeatherCatV1.13B119,2013-03-21 23:40:00,
2013-03-21 19:50:00,38.3,14.3,29.63,North,0,2.0,7.0,37,0.00,,,0.00,WeatherCatV1.13B119,2013-03-21 23:50:00,
2013-03-21 19:55:00,36.0,12.3,29.67,NNW,331,2.0,2.0,37,0.00,,,0.00,WeatherCatV1.13B119,2013-03-21 23:55:00,
2013-03-21 20:13:00,35.4,12.3,29.67,WNW,284,3.0,4.0,38,0.00,,,0.00,WeatherCatV1.13B119,2013-03-22 00:13:00,
2013-03-21 20:18:00,35.3,11.7,29.68,West,276,4.0,5.0,37,0.00,,,0.00,WeatherCatV1.13B119,2013-03-22 00:18:00,
2013-03-21 20:23:00,35.2,12.8,29.67,North,9,0.0,2.0,39,0.00,,,0.00,WeatherCatV1.13B119,2013-03-22 00:23:00,
2013-03-21 20:28:00,35.0,12.6,29.68,North,358,0.0,1.0,39,0.00,,,0.00,WeatherCatV1.13B119,2013-03-22 00:28:00,
2013-03-21 20:33:00,34.8,12.4,29.68,North,357,3.0,4.0,39,0.00,,,0.00,WeatherCatV1.13B119,2013-03-22 00:33:00,
2013-03-21 20:38:00,34.7,12.3,29.68,NW,315,3.0,5.0,39,0.00,,,0.00,WeatherCatV1.13B119,2013-03-22 00:38:00,
2013-03-21 20:43:00,34.6,12.8,29.68,WNW,299,2.0,4.0,40,0.00,,,0.00,WeatherCatV1.13B119,2013-03-22 00:43:00,
2013-03-21 20:48:00,34.4,12.6,29.68,SW,218,1.0,3.0,40,0.00,,,0.00,WeatherCatV1.13B119,2013-03-22 00:48:00,
2013-03-21 20:53:00,34.3,12.5,29.69,NNW,331,3.0,4.0,40,0.00,,,0.00,WeatherCatV1.13B119,2013-03-22 00:53:00,
2013-03-21 20:58:00,34.2,13.0,29.69,NNW,339,2.0,4.0,41,0.00,,,0.00,WeatherCatV1.13B119,2013-03-22 00:58:00,
2013-03-21 21:03:00,34.1,12.9,29.69,SSW,201,6.0,6.0,41,0.00,,,0.00,WeatherCatV1.13B119,2013-03-22 01:03:00,
2013-03-21 21:08:00,34.0,12.8,29.69,WNW,284,1.0,4.0,41,0.00,,,0.00,WeatherCatV1.13B119,2013-03-22 01:08:00,
2013-03-21 21:13:00,33.9,13.3,29.69,North,354,0.0,1.0,42,0.00,,,0.00,WeatherCatV1.13B119,2013-03-22 01:13:00,
2013-03-21 21:18:00,33.8,12.6,29.69,North,354,3.0,3.0,41,0.00,,,0.00,WeatherCatV1.13B119,2013-03-22 01:18:00,
2013-03-21 21:23:00,33.7,12.5,29.70,WNW,294,1.0,3.0,41,0.00,,,0.00,WeatherCatV1.13B119,2013-03-22 01:23:00,
2013-03-21 21:28:00,33.6,13.0,29.70,NNW,334,0.0,2.0,42,0.00,,,0.00,WeatherCatV1.13B119,2013-03-22 01:28:00,
2013-03-21 21:33:00,33.5,12.9,29.70,West,267,0.0,4.0,42,0.00,,,0.00,WeatherCatV1.13B119,2013-03-22 01:33:00,
2013-03-21 21:38:00,33.4,12.8,29.70,North,353,1.0,4.0,42,0.00,,,0.00,WeatherCatV1.13B119,2013-03-22 01:38:00,
2013-03-21 21:43:00,33.3,13.2,29.70,West,260,0.0,2.0,43,0.00,,,0.00,WeatherCatV1.13B119,2013-03-22 01:43:00,
2013-03-21 21:48:00,33.2,13.2,29.71,WNW,284,1.0,4.0,43,0.00,,,0.00,WeatherCatV1.13B119,2013-03-22 01:48:00,
2013-03-21 21:53:00,33.1,14.1,29.71,North,349,0.0,4.0,45,0.00,,,0.00,WeatherCatV1.13B119,2013-03-22 01:53:00,
2013-03-21 21:58:00,33.0,14.0,29.71,West,268,2.0,6.0,45,0.00,,,0.00,WeatherCatV1.13B119,2013-03-22 01:58:00,
2013-03-21 22:03:00,33.0,14.5,29.71,NW,306,2.0,3.0,46,0.00,,,0.00,WeatherCatV1.13B119,2013-03-22 02:03:00,
2013-03-21 22:08:00,32.9,14.9,29.71,North,350,1.0,5.0,47,0.00,,,0.00,WeatherCatV1.13B119,2013-03-22 02:08:00,
2013-03-21 22:13:00,32.8,14.8,29.71,NNW,338,1.0,3.0,47,0.00,,,0.00,WeatherCatV1.13B119,2013-03-22 02:13:00,
2013-03-21 22:18:00,32.8,14.3,29.71,NW,308,2.0,4.0,46,0.00,,,0.00,WeatherCatV1.13B119,2013-03-22 02:18:00,
2013-03-21 22:23:00,32.7,14.2,29.71,NW,315,0.0,2.0,46,0.00,,,0.00,WeatherCatV1.13B119,2013-03-22 02:23:00,
2013-03-21 22:28:00,32.6,14.6,29.71,NW,311,1.0,4.0,47,0.00,,,0.00,WeatherCatV1.13B119,2013-03-22 02:28:00,
2013-03-21 22:33:00,32.6,14.1,29.71,NW,311,1.0,6.0,46,0.00,,,0.00,WeatherCatV1.13B119,2013-03-22 02:33:00,
2013-03-21 22:38:00,32.5,14.5,29.71,NW,319,0.0,2.0,47,0.00,,,0.00,WeatherCatV1.13B119,2013-03-22 02:38:00,
2013-03-21 22:43:00,32.4,14.4,29.72,NNW,338,0.0,4.0,47,0.00,,,0.00,WeatherCatV1.13B119,2013-03-22 02:43:00,
2013-03-21 22:48:00,32.4,14.4,29.72,NNW,340,1.0,3.0,47,0.00,,,0.00,WeatherCatV1.13B119,2013-03-22 02:48:00,
2013-03-21 22:53:00,32.3,14.4,29.72,NNW,334,2.0,2.0,47,0.00,,,0.00,WeatherCatV1.13B119,2013-03-22 02:53:00,
2013-03-21 22:58:00,32.2,14.3,29.72,WNW,289,3.0,3.0,47,0.00,,,0.00,WeatherCatV1.13B119,2013-03-22 02:58:00,
2013-03-21 23:03:00,32.1,14.2,29.72,NW,314,3.0,4.0,47,0.00,,,0.00,WeatherCatV1.13B119,2013-03-22 03:03:00,
2013-03-21 23:08:00,32.1,14.2,29.72,North,354,1.0,5.0,47,0.00,,,0.00,WeatherCatV1.13B119,2013-03-22 03:08:00,
2013-03-21 23:13:00,32.0,14.1,29.72,NW,308,4.0,7.0,47,0.00,,,0.00,WeatherCatV1.13B119,2013-03-22 03:13:00,
2013-03-21 23:18:00,31.9,14.0,29.72,NNW,341,2.0,4.0,47,0.00,,,0.00,WeatherCatV1.13B119,2013-03-22 03:18:00,
2013-03-21 23:23:00,31.8,14.4,29.73,West,262,0.0,3.0,48,0.00,,,0.00,WeatherCatV1.13B119,2013-03-22 03:23:00,
2013-03-21 23:28:00,31.7,13.8,29.73,North,356,2.0,5.0,47,0.00,,,0.00,WeatherCatV1.13B119,2013-03-22 03:28:00,
2013-03-21 23:33:00,31.7,14.3,29.73,North,356,1.0,3.0,48,0.00,,,0.00,WeatherCatV1.13B119,2013-03-22 03:33:00,
2013-03-21 23:38:00,31.6,13.7,29.74,North,349,2.0,7.0,47,0.00,,,0.00,WeatherCatV1.13B119,2013-03-22 03:38:00,
2013-03-21 23:43:00,31.5,13.6,29.73,West,278,2.0,5.0,47,0.00,,,0.00,WeatherCatV1.13B119,2013-03-22 03:43:00,
2013-03-21 23:48:00,31.5,13.6,29.73,NNW,335,3.0,4.0,47,0.00,,,0.00,WeatherCatV1.13B119,2013-03-22 03:48:00,
2013-03-21 23:53:00,31.4,14.0,29.73,NNW,340,0.0,2.0,48,0.00,,,0.00,WeatherCatV1.13B119,2013-03-22 03:53:00,
2013-03-21 23:58:00,31.3,13.9,29.74,North,358,1.0,5.0,48,0.00,,,0.00,WeatherCatV1.13B119,2013-03-22 03:58:00,